| time (UTC) | temp F | wind direction | speed MPH | gust MPH | rain 1hr in | rain 24hr in | rain mn in | humidity % | barometer mb |
| 20260902072036 | 76 | 45 | 1.0 | 2.0 | 0.00 | 0.00 | 0.00 | 70 | 1027.4 |
| 20260902071036 | 76 | 45 | 1.0 | 3.0 | 0.00 | 0.00 | 0.00 | 69 | 1027.4 |
| 20260902070036 | 76 | 45 | 1.0 | 3.0 | 0.00 | 0.00 | 0.00 | 68 | 1027.3 |
| 20260902065036 | 77 | 0.0 | 2.0 | 0.00 | 0.00 | 0.00 | 67 | 1027.5 | |
| 20260902064016 | 77 | 45 | 2.0 | 3.0 | 0.00 | 0.00 | 0.00 | 66 | 1027.2 |
| 20260902063016 | 77 | 45 | 2.0 | 3.0 | 0.00 | 0.00 | 0.00 | 65 | 1027.2 |
| 20260902062016 | 78 | 68 | 2.0 | 3.0 | 0.00 | 0.00 | 0.00 | 65 | 1027.4 |
| 20260902061016 | 78 | 0.0 | 1.0 | 0.00 | 0.00 | 0.00 | 62 | 1027.3 | |
| 20260902060056 | 79 | 68 | 1.0 | 2.0 | 0.00 | 0.00 | 0.00 | 61 | 1027.5 |
| 20260902055016 | 80 | 68 | 1.0 | 3.0 | 0.00 | 0.00 | 0.00 | 58 | 1027.5 |
| 20260902054016 | 80 | 68 | 1.0 | 3.0 | 0.00 | 0.00 | 0.00 | 57 | 1027.4 |
| 20260902053016 | 80 | 45 | 3.0 | 5.0 | 0.00 | 0.00 | 0.00 | 57 | 1027.5 |
| 20260902052016 | 80 | 0.0 | 3.0 | 0.00 | 0.00 | 0.00 | 57 | 1027.5 | |
| 20260902051016 | 81 | 68 | 2.0 | 5.0 | 0.00 | 0.00 | 0.00 | 56 | 1027.5 |
| 20260902050016 | 81 | 90 | 2.0 | 4.0 | 0.00 | 0.00 | 0.00 | 56 | 1027.6 |
| 20260902045016 | 81 | 90 | 2.0 | 3.0 | 0.00 | 0.00 | 0.00 | 55 | 1027.6 |
| 20260902044016 | 82 | 90 | 2.0 | 3.0 | 0.00 | 0.00 | 0.00 | 54 | 1027.5 |
| 20260902043016 | 83 | 135 | 1.0 | 3.0 | 0.00 | 0.00 | 0.00 | 53 | 1027.6 |
| 20260902042016 | 83 | 135 | 2.0 | 4.0 | 0.00 | 0.00 | 0.00 | 52 | 1027.5 |
| 20260902041036 | 83 | 135 | 4.0 | 5.0 | 0.00 | 0.00 | 0.00 | 52 | 1027.3 |
| 20260902040036 | 83 | 135 | 3.0 | 5.0 | 0.00 | 0.00 | 0.00 | 52 | 1027.2 |
| 20260902035016 | 83 | 135 | 3.0 | 4.0 | 0.00 | 0.00 | 0.00 | 52 | 1027.1 |
| 20260902034036 | 0 | 0.0 | 0.0 | 0.00 | 0.00 | 0.00 | |||
| 20260902033035 | 0 | 0.0 | 0.0 | 0.00 | 0.00 | 0.00 | |||
| 20260902032036 | 0 | 0.0 | 0.0 | 0.00 | 0.00 | 0.00 | |||
| 20260902031015 | 0 | 0.0 | 0.0 | 0.00 | 0.00 | 0.00 | |||
| 20260902030056 | 0 | 0.0 | 0.0 | 0.00 | 0.00 | 0.00 | |||
| 20260902025016 | 0 | 0.0 | 0.0 | 0.00 | 0.00 | 0.00 | |||
| 20260902024015 | 0 | 0.0 | 0.0 | 0.00 | 0.00 | 0.00 | |||
| 20260902023107 | 86 | 203 | 3.0 | 3.0 | 0.00 | 0.00 | 0.00 | 47 | 1024.8 |
| 20260902022516 | 86 | 180 | 3.0 | 6.0 | 0.00 | 0.00 | 0.00 | 47 | 1024.7 |
| 20260902021517 | 86 | 158 | 3.0 | 5.0 | 0.00 | 0.00 | 0.00 | 46 | 1024.5 |
| 20260902020537 | 0 | 0.0 | 0.0 | 0.00 | 0.00 | 0.00 | |||
| 20260902015516 | 0 | 0.0 | 0.0 | 0.00 | 0.00 | 0.00 | |||
| 20260902014517 | 0 | 0.0 | 0.0 | 0.00 | 0.00 | 0.00 | |||
| 20260902013516 | 0 | 0.0 | 0.0 | 0.00 | 0.00 | 0.00 | |||
| 20260902012517 | 0 | 0.0 | 0.0 | 0.00 | 0.00 | 0.00 | |||
| 20260902011516 | 0 | 0.0 | 0.0 | 0.00 | 0.00 | 0.00 | |||
| 20260902010516 | 0 | 0.0 | 0.0 | 0.00 | 0.00 | 0.00 | |||
| 20260902005517 | 0 | 0.0 | 0.0 | 0.00 | 0.00 | 0.00 | |||
| 20260902004517 | 0 | 0.0 | 0.0 | 0.00 | 0.00 | 0.00 | |||
| 20260902003537 | 0 | 0.0 | 0.0 | 0.00 | 0.00 | 0.00 | |||
| 20260902002516 | 0 | 0.0 | 0.0 | 0.00 | 0.00 | 0.00 | |||
| 20260902001517 | 0 | 0.0 | 0.0 | 0.00 | 0.00 | 0.00 | |||
| 20260902000537 | 0 | 0.0 | 0.0 | 0.00 | 0.00 | 0.00 | |||
| 20260901235517 | 0 | 0.0 | 0.0 | 0.00 | 0.00 | 0.00 | |||
| 20260901234516 | 0 | 0.0 | 0.0 | 0.00 | 0.00 | 0.00 | |||
| 20260901233517 | 0 | 0.0 | 0.0 | 0.00 | 0.00 | 0.00 | |||
| 20260901232516 | 0 | 0.0 | 0.0 | 0.00 | 0.00 | 0.00 | |||
| 20260901231517 | 0 | 0.0 | 0.0 | 0.00 | 0.00 | 0.00 | |||
| 20260901230516 | 0 | 0.0 | 0.0 | 0.00 | 0.00 | 0.00 | |||
| 20260901225517 | 0 | 0.0 | 0.0 | 0.00 | 0.00 | 0.00 | |||
| 20260901224516 | 0 | 0.0 | 0.0 | 0.00 | 0.00 | 0.00 | |||
| 20260901223537 | 0 | 0.0 | 0.0 | 0.00 | 0.00 | 0.00 | |||
| 20260901222515 | 94 | 225 | 5.0 | 0.0 | 0.00 | 0.00 | 0.00 | 36 | 1025.4 |
| 20260901221516 | 94 | 270 | 6.0 | 9.0 | 0.00 | 0.00 | 0.00 | 36 | 1025.5 |
| 20260901220516 | 94 | 270 | 5.0 | 8.0 | 0.00 | 0.00 | 0.00 | 37 | 1025.7 |
| 20260901215516 | 94 | 225 | 5.0 | 10.0 | 0.00 | 0.00 | 0.00 | 36 | 1025.9 |
| 20260901214517 | 93 | 225 | 5.0 | 8.0 | 0.00 | 0.00 | 0.00 | 36 | 1025.9 |
| 20260901213516 | 94 | 248 | 5.0 | 11.0 | 0.00 | 0.00 | 0.00 | 36 | 1026.2 |
| 20260901212516 | 94 | 293 | 4.0 | 8.0 | 0.00 | 0.00 | 0.00 | 36 | 1026.4 |
| 20260901211516 | 94 | 315 | 3.0 | 6.0 | 0.00 | 0.00 | 0.00 | 37 | 1026.7 |
| 20260901210517 | 93 | 315 | 5.0 | 8.0 | 0.00 | 0.00 | 0.00 | 37 | 1026.7 |
| 20260901205516 | 93 | 293 | 3.0 | 5.0 | 0.00 | 0.02 | 0.00 | 38 | 1026.9 |
| 20260901204516 | 92 | 270 | 6.0 | 13.0 | 0.00 | 0.02 | 0.00 | 38 | 1027.0 |
| 20260901203516 | 92 | 315 | 5.0 | 11.0 | 0.00 | 0.04 | 0.00 | 38 | 1027.2 |
| 20260901202516 | 92 | 248 | 3.0 | 9.0 | 0.00 | 0.05 | 0.00 | 37 | 1027.4 |
| 20260901201516 | 93 | 158 | 3.0 | 6.0 | 0.00 | 0.06 | 0.00 | 38 | 1027.6 |
| 20260901200516 | 92 | 180 | 5.0 | 9.0 | 0.00 | 0.08 | 0.00 | 38 | 1027.7 |
| 20260901195516 | 91 | 248 | 4.0 | 9.0 | 0.00 | 0.15 | 0.00 | 40 | 1027.5 |
| 20260901194516 | 91 | 248 | 3.0 | 6.0 | 0.00 | 0.18 | 0.00 | 40 | 1027.7 |
| 20260901193536 | 91 | 248 | 4.0 | 8.0 | 0.00 | 0.18 | 0.00 | 39 | 1027.9 |
| 20260901192612 | 90 | 203 | 6.0 | 9.0 | 0.00 | 0.18 | 0.00 | 41 | 1028.1 |
| 20260901191516 | 90 | 135 | 3.0 | 7.0 | 0.00 | 0.18 | 0.00 | 40 | 1028.1 |
| 20260901190517 | 90 | 203 | 3.0 | 7.0 | 0.00 | 0.19 | 0.00 | 41 | 1028.2 |
| 20260901185516 | 89 | 225 | 6.0 | 11.0 | 0.00 | 0.19 | 0.00 | 41 | 1028.3 |
| 20260901184516 | 89 | 270 | 3.0 | 7.0 | 0.00 | 0.19 | 0.00 | 43 | 1028.3 |
| 20260901183516 | 88 | 270 | 5.0 | 9.0 | 0.00 | 0.19 | 0.00 | 43 | 1028.5 |
| 20260901182516 | 88 | 158 | 2.0 | 5.0 | 0.00 | 0.19 | 0.00 | 42 | 1028.5 |
| 20260901181516 | 88 | 180 | 4.0 | 9.0 | 0.00 | 0.19 | 0.00 | 43 | 1028.7 |
| 20260901180516 | 87 | 225 | 2.0 | 6.0 | 0.00 | 0.19 | 0.00 | 45 | 1028.7 |
| 20260901175517 | 87 | 293 | 4.0 | 7.0 | 0.00 | 0.19 | 0.00 | 44 | 1028.8 |
| 20260901174516 | 87 | 315 | 1.0 | 4.0 | 0.00 | 0.19 | 0.00 | 46 | 1028.9 |
| 20260901173516 | 87 | 203 | 2.0 | 6.0 | 0.00 | 0.19 | 0.00 | 45 | 1028.9 |
| 20260901172516 | 86 | 90 | 1.0 | 5.0 | 0.00 | 0.19 | 0.00 | 46 | 1028.8 |
| 20260901171517 | 85 | 248 | 4.0 | 8.0 | 0.00 | 0.19 | 0.00 | 46 | 1028.9 |
| 20260901170516 | 85 | 203 | 2.0 | 5.0 | 0.00 | 0.19 | 0.00 | 48 | 1029.0 |
| 20260901165516 | 85 | 225 | 1.0 | 2.0 | 0.00 | 0.19 | 0.00 | 49 | 1029.0 |
| 20260901164516 | 84 | 90 | 2.0 | 5.0 | 0.00 | 0.19 | 0.00 | 52 | 1028.9 |
| 20260901163516 | 84 | 293 | 2.0 | 4.0 | 0.00 | 0.19 | 0.00 | 54 | 1029.0 |
| 20260901162516 | 83 | 225 | 1.0 | 3.0 | 0.00 | 0.19 | 0.00 | 52 | 1028.9 |
| 20260901161516 | 82 | 0.0 | 3.0 | 0.00 | 0.19 | 0.00 | 56 | 1028.8 | |
| 20260901160516 | 82 | 0.0 | 0.0 | 0.00 | 0.19 | 0.00 | 59 | 1028.8 | |
| 20260901155516 | 81 | 0.0 | 0.0 | 0.00 | 0.19 | 0.00 | 61 | 1028.8 | |
| 20260901154516 | 80 | 0.0 | 1.0 | 0.00 | 0.19 | 0.00 | 64 | 1028.8 | |
| 20260901153516 | 79 | 113 | 1.0 | 2.0 | 0.00 | 0.19 | 0.00 | 66 | 1028.8 |
| 20260901152516 | 77 | 180 | 1.0 | 3.0 | 0.00 | 0.19 | 0.00 | 73 | 1028.7 |
| 20260901151536 | 76 | 203 | 1.0 | 3.0 | 0.00 | 0.19 | 0.00 | 78 | 1028.5 |
| 20260901150516 | 75 | 0.0 | 0.0 | 0.00 | 0.19 | 0.00 | 81 | 1028.5 | |
| 20260901145516 | 73 | 0.0 | 0.0 | 0.00 | 0.19 | 0.00 | 86 | 1028.3 | |
| 20260901144516 | 72 | 0.0 | 0.0 | 0.00 | 0.19 | 0.00 | 89 | 1028.1 | |
| 20260901143516 | 70 | 0.0 | 0.0 | 0.00 | 0.19 | 0.00 | 90 | 1028.1 | |
| 20260901142516 | 69 | 0.0 | 0.0 | 0.00 | 0.19 | 0.00 | 92 | 1027.9 | |
| 20260901141516 | 68 | 0.0 | 0.0 | 0.00 | 0.19 | 0.00 | 93 | 1027.7 | |
| 20260901140556 | 67 | 0.0 | 0.0 | 0.00 | 0.20 | 0.00 | 93 | 1027.5 | |
| 20260901135516 | 66 | 0.0 | 0.0 | 0.00 | 0.20 | 0.00 | 93 | 1027.5 | |
| 20260901134536 | 66 | 0.0 | 0.0 | 0.00 | 0.20 | 0.00 | 93 | 1027.4 | |
| 20260901133516 | 65 | 0.0 | 0.0 | 0.00 | 0.20 | 0.00 | 93 | 1027.4 | |
| 20260901132516 | 65 | 0.0 | 0.0 | 0.00 | 0.20 | 0.00 | 92 | 1027.2 | |
| 20260901131516 | 65 | 0.0 | 0.0 | 0.00 | 0.20 | 0.00 | 92 | 1026.9 | |
| 20260901130516 | 65 | 0.0 | 0.0 | 0.00 | 0.20 | 0.00 | 92 | 1026.9 | |
| 20260901125516 | 65 | 0.0 | 0.0 | 0.00 | 0.20 | 0.00 | 92 | 1026.7 | |
| 20260901124516 | 66 | 0.0 | 0.0 | 0.00 | 0.20 | 0.00 | 92 | 1026.7 | |
| 20260901123516 | 66 | 0.0 | 0.0 | 0.00 | 0.20 | 0.00 | 92 | 1026.6 | |
| 20260901122516 | 66 | 0.0 | 0.0 | 0.00 | 0.24 | 0.00 | 92 | 1026.6 | |
| 20260901121536 | 66 | 0.0 | 0.0 | 0.00 | 0.27 | 0.00 | 92 | 1026.5 | |
| 20260901120516 | 66 | 0.0 | 0.0 | 0.00 | 0.27 | 0.00 | 92 | 1026.4 | |
| 20260901115536 | 66 | 0.0 | 0.0 | 0.00 | 0.27 | 0.00 | 91 | 1026.4 | |
| 20260901114516 | 66 | 0.0 | 0.0 | 0.00 | 0.27 | 0.00 | 91 | 1026.4 | |
| 20260901113516 | 66 | 0.0 | 0.0 | 0.00 | 0.27 | 0.00 | 91 | 1026.3 | |
| 20260901112516 | 66 | 0.0 | 0.0 | 0.00 | 0.27 | 0.00 | 91 | 1026.2 | |
| 20260901111516 | 66 | 0.0 | 0.0 | 0.00 | 0.27 | 0.00 | 91 | 1026.1 | |
| 20260901110536 | 66 | 0.0 | 0.0 | 0.00 | 0.27 | 0.00 | 91 | 1026.0 | |
| 20260901105516 | 66 | 45 | 1.0 | 2.0 | 0.00 | 0.27 | 0.00 | 91 | 1025.9 |
| 20260901104536 | 66 | 45 | 2.0 | 4.0 | 0.00 | 0.27 | 0.00 | 91 | 1025.9 |
| 20260901103516 | 67 | 68 | 2.0 | 3.0 | 0.00 | 0.27 | 0.00 | 91 | 1025.6 |
| 20260901102516 | 67 | 0.0 | 0.0 | 0.00 | 0.27 | 0.00 | 91 | 1025.5 | |
| 20260901101516 | 67 | 0.0 | 0.0 | 0.00 | 0.27 | 0.00 | 91 | 1025.4 | |
| 20260901100516 | 67 | 0.0 | 0.0 | 0.00 | 0.27 | 0.00 | 90 | 1025.2 | |
| 20260901095516 | 67 | 0.0 | 0.0 | 0.00 | 0.27 | 0.00 | 91 | 1025.1 | |
| 20260901094516 | 67 | 0.0 | 0.0 | 0.00 | 0.27 | 0.00 | 90 | 1025.1 | |
| 20260901093516 | 67 | 0.0 | 0.0 | 0.00 | 0.27 | 0.00 | 90 | 1025.1 | |
| 20260901092516 | 67 | 0.0 | 0.0 | 0.00 | 0.27 | 0.00 | 90 | 1025.1 | |
| 20260901091516 | 67 | 0.0 | 0.0 | 0.00 | 0.27 | 0.00 | 90 | 1025.1 | |
| 20260901090536 | 68 | 0.0 | 0.0 | 0.00 | 0.27 | 0.00 | 90 | 1025.2 | |
| 20260901085516 | 68 | 0.0 | 0.0 | 0.00 | 0.27 | 0.00 | 89 | 1025.1 | |
| 20260901084536 | 68 | 0.0 | 0.0 | 0.00 | 0.27 | 0.00 | 89 | 1025.1 | |
| 20260901083536 | 68 | 0.0 | 0.0 | 0.00 | 0.27 | 0.00 | 88 | 1025.4 | |
| 20260901082516 | 68 | 0.0 | 0.0 | 0.00 | 0.27 | 0.00 | 88 | 1025.3 | |
| 20260901081516 | 68 | 0.0 | 0.0 | 0.00 | 0.27 | 0.00 | 87 | 1025.2 | |
| 20260901080516 | 69 | 0.0 | 0.0 | 0.00 | 0.27 | 0.00 | 87 | 1025.2 | |
| 20260901075536 | 69 | 0.0 | 0.0 | 0.00 | 0.27 | 0.00 | 87 | 1025.2 | |
| 20260901074516 | 68 | 45 | 2.0 | 4.0 | 0.00 | 0.27 | 0.00 | 87 | 1025.2 |
| 20260901073536 | 68 | 68 | 3.0 | 4.0 | 0.00 | 0.27 | 0.00 | 87 | 1025.4 |
| 20260901072516 | 68 | 68 | 1.0 | 4.0 | 0.00 | 0.27 | 0.00 | 88 | 1025.5 |